Flag for Germany Weather past 2 weeks in Gross-Gerau, Hesse, Germany

Now
45 °F

Broken clouds.


Feels Like: 38 °F
Forecast: 48 / 67 °F
Wind: 13 mph from Northeast

Location: Frankfurt-M-Flughafen Airport


UV Index: 3 (Moderate)

Visibility: N/A


Pressure: 30.01 "Hg

Humidity: 76%

Dew point: 37 °F

Location of Gross-GerauLocation

Historic Weather in Gross-Gerau

°F

Gross-Gerau temperature yesterday

Maximum temperature yesterday: 57 °F (at 3:20 PM)
Minimum temperature yesterday: 46 °F (at 3:50 AM)
Average temperature yesterday: 51 °F

Past Weeks' High & Low Weather Summary

 TemperatureHumidityPressure
High72 °F (Apr 4, 2:50 PM)100% (Apr 5, 12:50 AM)30.42 "Hg (Apr 5, 12:50 AM)
Low32 °F (Apr 16, 5:20 AM)25% (Apr 17, 5:50 PM)29.68 "Hg (Apr 4, 3:50 PM)
Average54 °F61%30.07 "Hg
* Reported Apr 4 7:20 AM — Apr 19 7:50 AM, Gross-Gerau, Weather by CustomWeather, © 2014

Note: Actual official high and low records may vary slightly from our data, if they occured in-between our weather recording intervals... More about our weather records

Advertising

Historic Weather Conditions — Data for Previous 24 hours

 ConditionsComfort  
Time TempWeatherWind HumidityBarometerVisibility
7:50 AM
Apr 19
43 °FPassing clouds.14 mph81%29.98 "HgN/A
7:20 AM41 °FPassing clouds.14 mph87%29.98 "HgN/A
6:50 AM39 °FClear.10 mph87%29.98 "Hg10 mi
6:20 AM39 °FClear.8 mph87%29.98 "Hg10 mi
5:50 AM39 °FClear.8 mph87%29.98 "Hg10 mi
5:20 AM37 °FClear.10 mph87%29.95 "Hg10 mi
4:50 AM37 °FPassing clouds.7 mph87%29.95 "HgN/A
4:20 AM37 °FPassing clouds.5 mph87%29.95 "HgN/A
3:50 AM37 °FPassing clouds.5 mph87%29.95 "HgN/A
3:20 AM37 °FPassing clouds.6 mph87%29.95 "HgN/A
2:50 AM37 °FPassing clouds.3 mph87%29.95 "HgN/A
2:20 AM39 °FClear.3 mph81%29.95 "Hg10 mi
1:50 AM41 °FClear.7 mph76%29.95 "Hg10 mi
1:20 AM43 °FClear.8 mph71%29.95 "Hg10 mi
12:50 AM46 °FClear.9 mph62%29.95 "Hg10 mi
12:20 AM46 °FClear.9 mph62%29.95 "Hg10 mi
11:50 PM
Apr 18
46 °FClear.8 mph57%29.95 "Hg10 mi
11:20 PM46 °FClear.7 mph57%29.95 "Hg10 mi
10:50 PM48 °FClear.6 mph50%29.95 "Hg10 mi
10:20 PM50 °FClear.5 mph47%29.95 "Hg10 mi
9:50 PM48 °FClear.5 mph50%29.95 "Hg10 mi
9:20 PM46 °FSunny.6 mph50%29.92 "Hg10 mi
8:50 PM50 °FSunny.7 mph43%29.92 "Hg10 mi
8:20 PM52 °FSunny.7 mph41%29.92 "Hg10 mi
7:50 PM52 °FSunny.13 mph41%29.89 "Hg10 mi
7:20 PM54 °FSunny.12 mph38%29.89 "Hg10 mi
6:50 PM54 °FSunny.17 mph38%29.89 "Hg10 mi
6:20 PM55 °FSunny.14 mph36%29.89 "Hg10 mi
5:50 PM54 °FSunny.15 mph41%29.89 "Hg10 mi
5:20 PM57 °FSunny.14 mph27%29.86 "Hg10 mi
4:50 PM57 °FScattered showers. Passing clouds.14 mph31%29.86 "HgN/A
4:20 PM57 °FScattered showers. Passing clouds.14 mph33%29.86 "HgN/A
3:20 PM57 °FScattered showers. Scattered clouds.8 mph36%29.86 "HgN/A
2:50 PM55 °FScattered showers. Scattered clouds.15 mph31%29.89 "HgN/A
2:20 PM55 °FScattered showers. Scattered clouds.9 mph41%29.89 "HgN/A
1:50 PM55 °FScattered showers. Scattered clouds.7 mph41%29.89 "HgN/A
1:20 PM52 °FSprinkles. Scattered clouds.15 mph50%29.89 "HgN/A
12:50 PM54 °FSprinkles. Scattered clouds.9 mph47%29.89 "HgN/A
12:20 PM55 °FScattered showers. Scattered clouds.14 mph41%29.89 "HgN/A
11:50 AM54 °FScattered showers. Scattered clouds.13 mph41%29.89 "HgN/A
11:20 AM52 °FScattered clouds.12 mph47%29.89 "HgN/A
10:50 AM52 °FScattered clouds.13 mph54%29.89 "HgN/A
10:20 AM50 °FScattered clouds.10 mph62%29.89 "HgN/A
9:50 AM48 °FScattered clouds.9 mph62%29.89 "HgN/A
9:20 AM48 °FScattered clouds.9 mph66%29.89 "HgN/A
Weather by CustomWeather, © 2014

See weather overview